Showing default

HULIANWANG DIGUI-140, 67438

Orbit data source: Space-Track

HULIANWANG DIGUI-140, 67438 is a payload satellite owned by Zhongguo Xingwang (CN) in LEO that was launched on Tue, 13 Jan 2026 UTC via a CHANG ZHENG 8A launch vehicle from the Wenchang Satellite Launch Center (WSC). Payload-class satellites include a variety of spacecraft equipped with specific instruments for various scientific and technological missions. These include communications satellites like Starlink; space stations such as the ISS; scientific satellites like the Hubble; Earth observation satellites from companies like Planet Labs, Umbra, and HawkEye 360; GPS; miniature CubeSats for education and research; and military/defense satellites.

Loading next visibility...
Identifier
67438, 2026-007D
Orbit
LEO
Country
Flag of CNCN / PRC
Related business
Manufacturer
CAST
Mission
Operational Civil Communications
Bus & Motor
XINGWANG C, Unknown motor
Mass
~700 kg wet, ~700 kg dry
Launch date (UTC)
2026-01-13 (5 months ago)
Launch vehicle
CHANG ZHENG 8A
Launch site
Wenchang Satellite Launch Center (WSC)
Object type
Payload
Rocket body
Debris
Shape & HBR
Box + 2 Pan, 14.5 m
Radar Cross Section
5.935 m², Large (>1 m²)

Expand to show TLE details & history
Last TLE update: 12 hours ago

TLE from 12 hours ago
0 HULIANWANG DIGUI-140
1 67438U 26007D   26171.41364190 -.00000090  00000-0  73218-4 0  9993
2 67438  50.0063  74.4643 0000905  19.7300 340.3607 13.29324927 21217
Epoch: 2026-06-20T09:55Z
TLE epoch observation values (Epoch: 2026-06-20T09:55:38.660Z)
Latitude
-0.00001°
Longitude
16.92459°
Altitude
1,149.176 km
Speed
7.28 km/s
True Right ascension
04h 57m 51s
True Declination
0° 00' 00"
Sunlit
Object was in daylight at epoch
Visualization orbit readout
Latitude
Unknown
Longitude
Unknown
Altitude
Unknown
Speed
Unknown
Apparent Right ascension
Unknown
Apparent Declination
Unknown
Sunlit
N/A
Visualization observer readout
Local Sidereal Time
08:41:39
Azimuth
Unknown
Elevation
Unknown
Doppler factor
Unknown
Orbital elements
Apogee altitude
1,150.696 km
Perigee altitude
1,149.334 km
Semi-major axis
7,528.152 km
Eccentricity
0.00009
Inclination
50.0063°
RAAN
74.4643°
Arg. of periapsis
19.73°
True anomaly
340.35721°
Mean anomaly
340.3607°
Eccentric anomaly
340.35896°
Mean motion
3.32285 °/min
Orbital period
108.34 mins
BSTAR
0.000073218
Loading maneuver chart data...
Computing Atmospheric mass density...
Loading historical data...
Loading historical data...
Loading historical data...
Loading historical data...
Loading historical data...
Loading historical data...
Loading historical data...

Documentation

Showing up to 5 results
|